Stündliche Wetter Ábrego

Heute, 17 Juni, Donnerstag

Zeit Temperatur Niederschläge Wind Luftdruck Luftfeuchtigkeit
00:00 +17°C° 0.1 mm 2 m/S 645 mmHg 91%
01:00 +17°C° 0.1 mm 2 m/S 645 mmHg 90%
02:00 +17°C° 0.1 mm 2 m/S 645 mmHg 90%
03:00 +18°C° 0.1 mm 1 m/S 645 mmHg 90%
04:00 +18°C° 0.1 mm 1 m/S 645 mmHg 89%
05:00 +19°C° 0 mm 1 m/S 645 mmHg 87%
06:00 +20°C° 0 mm 1 m/S 646 mmHg 85%
07:00 +20°C° 0 mm 1 m/S 646 mmHg 83%
08:00 +22°C° 0 mm 1 m/S 646 mmHg 76%
09:00 +24°C° 0 mm 1 m/S 647 mmHg 70%
10:00 +25°C° 0 mm 2 m/S 647 mmHg 63%
11:00 +25°C° 0.4 mm 2 m/S 647 mmHg 65%
12:00 +25°C° 0.4 mm 2 m/S 646 mmHg 67%
13:00 +25°C° 0.4 mm 2 m/S 646 mmHg 68%
14:00 +25°C° 1.1 mm 2 m/S 645 mmHg 72%
15:00 +24°C° 1.1 mm 2 m/S 645 mmHg 76%
16:00 +23°C° 1.1 mm 2 m/S 644 mmHg 80%
17:00 +21°C° 1 mm 2 m/S 644 mmHg 84%
18:00 +20°C° 1 mm 2 m/S 645 mmHg 88%
19:00 +19°C° 1 mm 2 m/S 645 mmHg 92%
20:00 +19°C° 0.1 mm 2 m/S 645 mmHg 91%
21:00 +18°C° 0.1 mm 2 m/S 645 mmHg 90%
22:00 +18°C° 0.1 mm 2 m/S 646 mmHg 90%
23:00 +18°C° 0.2 mm 2 m/S 645 mmHg 90%

Morgen, 18 Juni, Freitag

Zeit Temperatur Niederschläge Wind Luftdruck Luftfeuchtigkeit
00:00 +19°C° 0.2 mm 1 m/S 645 mmHg 90%
01:00 +18°C° 0.2 mm 1 m/S 645 mmHg 90%
02:00 +18°C° 0.1 mm 1 m/S 645 mmHg 89%
03:00 +18°C° 0.1 mm 1 m/S 645 mmHg 89%
04:00 +18°C° 0.1 mm 1 m/S 645 mmHg 89%
05:00 +19°C° 0 mm 1 m/S 645 mmHg 87%
06:00 +18°C° 0 mm 0 m/S 646 mmHg 85%
07:00 +18°C° 0 mm 0 m/S 646 mmHg 83%
08:00 +22°C° 0.1 mm 1 m/S 647 mmHg 79%
09:00 +23°C° 0.1 mm 1 m/S 647 mmHg 74%
10:00 +24°C° 0.1 mm 1 m/S 648 mmHg 69%
11:00 +24°C° 1.2 mm 1 m/S 647 mmHg 73%
12:00 +24°C° 1.2 mm 1 m/S 647 mmHg 77%
13:00 +23°C° 1.2 mm 1 m/S 646 mmHg 81%
14:00 +23°C° 1.6 mm 1 m/S 646 mmHg 83%
15:00 +22°C° 1.6 mm 1 m/S 646 mmHg 85%
16:00 +22°C° 1.6 mm 1 m/S 645 mmHg 87%
17:00 +21°C° 0.5 mm 1 m/S 645 mmHg 88%
18:00 +20°C° 0.5 mm 1 m/S 645 mmHg 90%
19:00 +19°C° 0.5 mm 1 m/S 646 mmHg 92%
20:00 +19°C° 0 mm 1 m/S 646 mmHg 92%
21:00 +19°C° 0 mm 1 m/S 646 mmHg 91%
22:00 +18°C° 0 mm 2 m/S 646 mmHg 91%
23:00 +18°C° 0 mm 2 m/S 646 mmHg 90%

übermorgen, 19 Juni, Samstag

Zeit Temperatur Niederschläge Wind Luftdruck Luftfeuchtigkeit
00:00 +18°C° 0 mm 1 m/S 646 mmHg 89%
01:00 +18°C° 0 mm 1 m/S 646 mmHg 89%
02:00 +18°C° 0 mm 1 m/S 645 mmHg 88%
03:00 +18°C° 0 mm 1 m/S 645 mmHg 88%
04:00 +18°C° 0 mm 1 m/S 645 mmHg 87%
05:00 +19°C° 0 mm 1 m/S 646 mmHg 85%
06:00 +20°C° 0 mm 1 m/S 646 mmHg 82%
07:00 +20°C° 0 mm 1 m/S 647 mmHg 80%
08:00 +22°C° 0 mm 1 m/S 647 mmHg 74%
09:00 +24°C° 0 mm 1 m/S 648 mmHg 68%
10:00 +25°C° 0 mm 2 m/S 648 mmHg 62%
11:00 +26°C° 0.6 mm 2 m/S 648 mmHg 63%
12:00 +26°C° 0.6 mm 2 m/S 647 mmHg 63%
13:00 +26°C° 0.6 mm 2 m/S 647 mmHg 64%
14:00 +26°C° 0.8 mm 2 m/S 647 mmHg 65%
15:00 +26°C° 0.8 mm 1 m/S 646 mmHg 66%
16:00 +26°C° 0.8 mm 1 m/S 646 mmHg 67%
17:00 +24°C° 0.4 mm 2 m/S 646 mmHg 74%
18:00 +21°C° 0.4 mm 2 m/S 646 mmHg 82%
19:00 +19°C° 0.4 mm 2 m/S 646 mmHg 89%
20:00 +19°C° 0.1 mm 2 m/S 646 mmHg 89%
21:00 +18°C° 0.1 mm 2 m/S 646 mmHg 90%
22:00 +18°C° 0.1 mm 2 m/S 647 mmHg 91%
23:00 +18°C° 0 mm 2 m/S 646 mmHg 90%

20 Juni, Sonntag

Zeit Temperatur Niederschläge Wind Luftdruck Luftfeuchtigkeit
00:00 +18°C° 0 mm 2 m/S 646 mmHg 90%
01:00 +17°C° 0 mm 2 m/S 646 mmHg 90%
02:00 +17°C° 0.1 mm 2 m/S 646 mmHg 90%
03:00 +17°C° 0.1 mm 2 m/S 646 mmHg 90%
04:00 +17°C° 0.1 mm 2 m/S 646 mmHg 89%
05:00 +19°C° 0.1 mm 1 m/S 646 mmHg 88%
06:00 +19°C° 0.1 mm 1 m/S 647 mmHg 87%
07:00 +20°C° 0.1 mm 1 m/S 647 mmHg 85%
08:00 +21°C° 0 mm 1 m/S 647 mmHg 80%
09:00 +22°C° 0 mm 1 m/S 648 mmHg 75%
10:00 +23°C° 0 mm 1 m/S 648 mmHg 70%
11:00 +24°C° 0.3 mm 2 m/S 648 mmHg 70%
12:00 +25°C° 0.3 mm 2 m/S 647 mmHg 69%
13:00 +26°C° 0.3 mm 2 m/S 647 mmHg 68%
14:00 +25°C° 1 mm 2 m/S 647 mmHg 70%
15:00 +25°C° 1 mm 2 m/S 646 mmHg 73%
16:00 +24°C° 1 mm 1 m/S 646 mmHg 75%
17:00 +23°C° 1 mm 1 m/S 646 mmHg 80%
18:00 +22°C° 1 mm 1 m/S 646 mmHg 86%
19:00 +20°C° 1 mm 1 m/S 646 mmHg 91%
20:00 +20°C° 0.2 mm 1 m/S 646 mmHg 91%
21:00 +19°C° 0.2 mm 1 m/S 646 mmHg 90%
22:00 +19°C° 0.2 mm 1 m/S 647 mmHg 90%
23:00 +19°C° 0.3 mm 1 m/S 646 mmHg 89%

21 Juni, Montag

Zeit Temperatur Niederschläge Wind Luftdruck Luftfeuchtigkeit
00:00 +18°C° 0.3 mm 1 m/S 646 mmHg 88%
01:00 +18°C° 0.3 mm 1 m/S 646 mmHg 87%
02:00 +18°C° 0.1 mm 1 m/S 646 mmHg 87%
03:00 +18°C° 0.1 mm 1 m/S 646 mmHg 86%
04:00 +16°C° 0.1 mm 1 m/S 646 mmHg 86%
05:00 +18°C° 0 mm 1 m/S 646 mmHg 83%
06:00 +19°C° 0 mm 1 m/S 647 mmHg 80%
07:00 +18°C° 0 mm 0 m/S 647 mmHg 77%
08:00 +22°C° 0 mm 1 m/S 647 mmHg 72%
09:00 +24°C° 0 mm 1 m/S 648 mmHg 67%
10:00 +25°C° 0 mm 2 m/S 648 mmHg 62%
11:00 +25°C° 0.4 mm 2 m/S 648 mmHg 63%
12:00 +26°C° 0.4 mm 2 m/S 647 mmHg 63%
13:00 +26°C° 0.4 mm 2 m/S 647 mmHg 63%
14:00 +26°C° 0.7 mm 2 m/S 646 mmHg 65%
15:00 +25°C° 0.7 mm 1 m/S 646 mmHg 67%
16:00 +25°C° 0.7 mm 1 m/S 646 mmHg 69%
17:00 +23°C° 0.4 mm 1 m/S 646 mmHg 76%
18:00 +21°C° 0.4 mm 2 m/S 645 mmHg 83%
19:00 +19°C° 0.4 mm 2 m/S 645 mmHg 90%
20:00 +18°C° 0.2 mm 2 m/S 646 mmHg 91%
21:00 +18°C° 0.2 mm 2 m/S 646 mmHg 92%
22:00 +18°C° 0.2 mm 2 m/S 646 mmHg 92%
23:00 +18°C° 0.3 mm 2 m/S 646 mmHg 92%

22 Juni, Dienstag

Zeit Temperatur Niederschläge Wind Luftdruck Luftfeuchtigkeit
00:00 +18°C° 0.3 mm 2 m/S 646 mmHg 91%
01:00 +18°C° 0.3 mm 2 m/S 646 mmHg 90%
02:00 +17°C° 0.2 mm 2 m/S 646 mmHg 90%
03:00 +18°C° 0.2 mm 1 m/S 645 mmHg 89%
04:00 +18°C° 0.2 mm 1 m/S 645 mmHg 88%
05:00 +19°C° 0.1 mm 1 m/S 646 mmHg 86%
06:00 +20°C° 0.1 mm 1 m/S 646 mmHg 83%
07:00 +18°C° 0.1 mm 0 m/S 647 mmHg 81%
08:00 +22°C° 0.1 mm 1 m/S 647 mmHg 77%
09:00 +23°C° 0.1 mm 1 m/S 648 mmHg 72%
10:00 +25°C° 0.1 mm 2 m/S 648 mmHg 68%
11:00 +24°C° 0.6 mm 2 m/S 648 mmHg 71%
12:00 +24°C° 0.6 mm 1 m/S 647 mmHg 75%
13:00 +24°C° 0.6 mm 1 m/S 647 mmHg 78%
14:00 +24°C° 1 mm 1 m/S 646 mmHg 79%
15:00 +24°C° 1 mm 1 m/S 646 mmHg 80%
16:00 +24°C° 1 mm 1 m/S 646 mmHg 81%
17:00 +22°C° 2 mm 1 m/S 646 mmHg 85%
18:00 +21°C° 2 mm 1 m/S 646 mmHg 88%
19:00 +20°C° 2 mm 1 m/S 646 mmHg 92%
20:00 +20°C° 1.2 mm 1 m/S 646 mmHg 92%
21:00 +19°C° 1.2 mm 1 m/S 646 mmHg 93%
22:00 +19°C° 1.2 mm 1 m/S 646 mmHg 93%
23:00 +19°C° 1.4 mm 1 m/S 646 mmHg 94%
Mehr zeigen

Wir brauchen deine Erlaubnis

Meteoprog und unser Service Anbieter werden persönliche Daten aufbewahren, so wie Cookies, Geräte Bezeichnung oder ähnliche Technologien von deinem Gerät und Prozess, so wie Persönliche Daten Inhalte und Werbungen, genauso wie social Media und den Verkehr zu analysieren.

  • Aufbewahrung und/oder Zugang zu deiner Geräte Informationen.

    Cookies, Geräte Bezeichnung oder andere Informationen, können aufbewahrt oder Zugang zu deinem Gerät erhalten, für den Grund, der oben angegeben wird.

  • Personalisierte Werbung und Inhalte, Messungen, Einblick in das Publikum und Produkt Entwicklung.

    Werbungen und Inhalte können personalisiert werden, basierend auf ein Profil. Mehr Daten können besser personalisierte Werbungen und Inhalte hinzufügen. Werbung und Inhalte können gezeigt und gemessen werden. Einblicke über das Publikum, welche die Werbung gesehen haben und den Inhalt, können abgeleitet werden. So wie Daten können genutzt werden, um es zu verbessern oder die Benutzer Erfahrung zu verbessern das System und die Software.

Wenn du “Ich stimme zu” klickst, erlaubst du uns, die Cookies zu benutzen die Geräte Bezeichnung, den Web oder ähnliche Technologien zu benutzen. Deine Settings, können in deinem Gerät bei deinem Browser geändert werden.

Für den bestimmten Zweck, berechtigten Interessen beruhen darauf, mehr als auf den Inhalt. Du kannst mehr darüber in unseren Privaten und Cookie Politik lesen.